Location: *
(46.4000°N, 12.6667°E)
Time: 02:21:29
(UTC+00:00)

Cosmos 1455 - Pass Details

Date: 09 April 2020
Orbit: 498 x 524 km, 82.5° (Epoch: 03 June)

Event Time Altitude Azimuth Distance (km) Brightness Sun altitude
Exits shadow 19:56:03 23° 49° (NE) 1,150 3.8 -20.5°
Drops below altitude 10° 19:57:54 10° 28° (NNE) 1,757 5.0 -20.8°
Sets 20:00:12 0° 19° (NNE) 2,654 6.1 -21.1°
